Location: Roanoke
(37.2710°N, 79.9420°W)
Time: 21:11:05
(UTC-05:00)

S-56A Canister/Altair - Pass Details

Date: 27 November 2019
Orbit: 632 x 2500 km, 38.9° (Epoch: 14 December)

Event Time Altitude Azimuth Distance (km) Brightness Sun altitude
Rises 11:42:33 0° 200° (SSW) 6,124 13.0 31.3°
Reaches altitude 10° 11:47:23 10° 190° (S) 5,153 13.1 31.4°
Maximum altitude 11:59:07 29° 139° (SE) 3,645 12.1 31.5°
Drops below altitude 10° 12:09:17 10° 86° (E) 4,476 11.5 31.6°
Sets 12:13:04 0° 76° (ENE) 5,224 11.6 31.6°
